Regional Weather Roundup
Issued by NWS

Home | Current Version | Previous Version | Graphics & Text | Print | Product List | Glossary On
Versions: 1 2 3 4 5 6 7 8 9 10 11 12 13 14 15 16 17 18 19 20 21 22 23 24 25 26 27 28 29 30 31 32 33 34 35 36 37 38 39 40 41 42 43 44 45 46 47 48 49 50
000
ASUS45 KABQ 221301
RWRNM
NEW MEXICO REGIONAL WEATHER ROUNDUP
NATIONAL WEATHER SERVICE ALBUQUERQUE NM
700 AM MDT FRI JUL 22 2016

NOTE: "FAIR" MEANS FEW OR NO CLOUDS BELOW 12,000 FEET AGL WITH NO
       SIGNIFICANT WEATHER OR OBSTRUCTIONS TO VISION.

      THIS PRODUCT IS RELEASED AS TWO VERSIONS.  ONE VERSION NEAR
      THE TOP OF THE HOUR CONTAINING PRELIMINARY DATA FROM ALBUQUERQUE
      AND OTHER STATIONS.  A FINAL VERSION WITH ADDITIONAL DATA IS
      ISSUED ABOUT 10 MINUTES AFTER THE HOUR.

NMZ501-503-504-510>518-221400-
NORTHWEST PLATEAU/NORTHCENTRAL MOUNTAINS

CITY           SKY/WX    TMP DP  RH WIND       PRES   REMARKS
FARMINGTON     FAIR      64  51  62 N6        30.32R
LOS ALAMOS     FAIR      69  44  40 NW3       30.44R
SANTA FE       FAIR      66  47  50 N9        30.37R
TAOS           FAIR      57  36  44 N3        30.45S
ANGEL FIRE     FAIR      49  44  83 CALM      30.55R

$$
NMZ402-403-502-505>509-221400-
WESTCENTRAL MOUNTAINS/SOUTHWEST MOUNTAINS

CITY           SKY/WX    TMP DP  RH WIND       PRES   REMARKS
GALLUP         FAIR      58  51  78 CALM      30.40
GRANTS         FAIR      55  52  90 NW3       30.43R
SILVER CITY    FAIR      65  55  68 W5        30.28S

$$
NMZ407-409-411-412-221400-
SOUTHERN DESERTS

CITY           SKY/WX    TMP DP  RH WIND       PRES   REMARKS
LORDSBURG      FAIR      68  59  73 W8        30.19F
DEMING         FAIR      70  59  68 NW3       30.19R
LAS CRUCES     FAIR      73  50  43 N3        30.20R
HOLLOMAN AFB   FAIR      70  48  45 NW3       30.17R
ALAMOGORDO     FAIR      68  46  45 E5        30.19S
T OR C         FAIR      74  50  42 N7        30.24R

$$
NMZ519>523-221400-
CENTRAL VALLEYS/CENTRAL HIGHLANDS

CITY           SKY/WX    TMP DP  RH WIND       PRES   REMARKS
ALBUQUERQUE    FAIR      70  47  43 S3        30.31R
DOUBLE EAGLE   PTCLDY    64  46  52 CALM      30.35R
MORIARTY ARPT  FAIR      56  40  55 CALM      30.37S
CLINES CORNERS FAIR      64  45  49 NW9       30.42R
BELEN          FAIR      65  52  62 CALM      30.30R
SOCORRO        FAIR      71  49  45 CALM      30.27R

$$
NMZ524>526-539-540-221400-
SOUTHCENTRAL MOUNTAINS

CITY           SKY/WX    TMP DP  RH WIND       PRES   REMARKS
RUIDOSO          N/A     66  46  48 W8        30.42R

$$
NMZ527>531-221400-
NORTHEAST HIGHLANDS/NORTHEAST PLAINS

CITY           SKY/WX    TMP DP  RH WIND       PRES   REMARKS
LAS VEGAS      FAIR      65  45  48 NW8       30.39R
RATON          FAIR      59  49  69 NE5       30.34R
CLAYTON        FAIR      75  53  46 W5        30.22F

$$
NMZ532>537-221400-
EASTCENTRAL PLAINS

CITY           SKY/WX    TMP DP  RH WIND       PRES   REMARKS
TUCUMCARI      FAIR      79  49  34 SW10      30.17R
CANNON AFB     FAIR      70  52  52 SW6       30.22R
CLOVIS AIRPORT FAIR      70  52  52 SW3       30.22R

$$
NMZ028-029-538-221400-
SOUTHEAST PLAINS

CITY           SKY/WX    TMP DP  RH WIND       PRES   REMARKS
ROSWELL        FAIR      72  48  42 S6        30.16S
ARTESIA        FAIR      73  50  43 SW3       30.17R
CARLSBAD       FAIR      73  52  47 CALM      30.14R
HOBBS          SUNNY     72  52  49 CALM      30.20R


$$




USA.gov is the U.S. government's official web portal to all federal, state and local government web resources and services.